Weather reports worldwide

Advertisment
Finisterre, Spain (8040): temperature & dewpoint: 18.06.2019 16:00:00 - 24.06.2019 16:00:00 (CEST)Finisterre, Spain (8040): wind speed & gusts: 18.06.2019 16:00:00 - 24.06.2019 16:00:00 (CEST)Finisterre, Spain (8040): wind direction: 18.06.2019 16:00:00 - 24.06.2019 16:00:00 (CEST)Finisterre, Spain (8040): reduced air pressure: 18.06.2019 16:00:00 - 24.06.2019 16:00:00 (CEST)Finisterre, Spain (8040): visibility: 18.06.2019 16:00:00 - 24.06.2019 16:00:00 (CEST)Finisterre, Spain (8040): sunshine duration: 18.06.2019 16:00:00 - 24.06.2019 16:00:00 (CEST)Finisterre, Spain (8040): precipitation: 18.06.2019 16:00:00 - 24.06.2019 16:00:00 (CEST)
Date & Time tt [°C] td [°C] ff [km/h] ff [kn] fx [km/h] fx [kn] dd ppp [hPa] vv [km] sd [min] rr [mm]
24.06.2019 16:00:00 - - - - - - - - - - -
24.06.2019 15:00:00 18,4 16,9 16 9 27 15 SSW 1014,0 12 23 0,0
24.06.2019 14:00:00 18,0 17,1 17 9 25 14 SSW 1014,0 10 11 -
24.06.2019 13:00:00 16,7 15,7 16 8 26 14 S 1013,9 9 36 0,0
24.06.2019 12:00:00 15,7 14,9 14 8 27 14 SSW 1013,7 8 17 0,0
24.06.2019 11:00:00 15,5 14,9 16 8 24 13 S 1013,6 0,9 0 0,0
24.06.2019 10:00:00 15,2 14,5 17 9 27 15 S 1013,5 0,6 0 0,0
24.06.2019 09:00:00 14,8 14,1 16 9 34 18 S 1013,3 0,7 0 0,2
24.06.2019 08:00:00 14,6 13,9 19 10 29 15 S 1013,1 0,6 0 -
24.06.2019 07:00:00 14,9 14,1 17 9 30 16 S 1013,0 0,6 0 0,0
24.06.2019 06:00:00 15,1 14,3 16 9 27 15 S 1012,6 0,6 0 0,0
24.06.2019 05:00:00 15,2 14,4 16 9 28 15 S 1012,8 0,6 0 0,0
24.06.2019 04:00:00 15,3 14,5 14 7 27 15 S 1013,0 0,6 0 0,0
24.06.2019 03:00:00 15,4 14,6 19 11 29 16 S 1013,1 0,7 0 0,0
24.06.2019 02:00:00 15,4 14,6 16 9 29 15 SSE 1013,5 0,9 0 -
24.06.2019 01:00:00 15,3 14,5 16 8 23 12 S 1013,7 1,0 0 0,0
24.06.2019 00:00:00 15,2 14,4 16 9 24 13 S 1013,6 0,2 0 0,0
23.06.2019 23:00:00 15,4 14,6 16 9 28 15 SSW 1013,3 0,1 0 0,0
23.06.2019 22:00:00 15,8 14,8 18 10 33 18 SSW 1012,7 0,2 0 0,0
23.06.2019 21:00:00 16,5 15,5 23 13 36 19 SSW 1012,6 0,2 0 0,0
23.06.2019 20:00:00 16,2 15,3 26 14 43 23 SSW 1012,2 0,1 0 -
23.06.2019 19:00:00 16,4 15,4 26 14 40 22 SSW 1011,9 0,2 0 0,0
23.06.2019 18:00:00 16,3 15,3 26 14 40 22 SSW 1012,0 0,1 0 0,0
23.06.2019 17:00:00 16,5 15,5 23 13 40 22 SSW 1011,8 0,2 0 0,0
23.06.2019 16:00:00 16,2 15,3 25 14 40 21 SSW 1011,9 0,1 0 0,0
23.06.2019 15:00:00 16,3 15,3 23 12 41 22 SSW 1011,8 0,2 0 0,0
23.06.2019 14:00:00 16,7 15,9 21 11 41 22 SSW 1011,4 0,3 0 -
23.06.2019 13:00:00 15,9 15,1 24 13 40 22 SSW 1011,3 1,0 0 0,0
23.06.2019 12:00:00 15,9 15,1 25 13 41 22 SSW 1011,0 1,0 0 0,0
23.06.2019 11:00:00 15,7 14,9 18 10 39 21 SSW 1010,9 0,1 0 0,0
23.06.2019 10:00:00 15,5 14,7 19 11 39 21 SSW 1010,5 0,1 0 0,0
23.06.2019 09:00:00 15,3 14,5 18 10 32 18 SSW 1010,2 0,8 0 0,0
23.06.2019 08:00:00 15,0 14,2 23 13 36 19 SSW 1009,6 0,8 0 -
23.06.2019 07:00:00 15,0 14,2 26 14 35 19 SSW 1009,7 0,1 0 0,0
23.06.2019 06:00:00 15,1 14,3 28 15 38 20 SSW 1009,8 1,0 0 0,0
23.06.2019 05:00:00 15,1 14,3 29 16 39 21 SSW 1009,7 0,8 0 0,2
23.06.2019 04:00:00 15,0 14,2 28 15 58 32 SSW 1009,6 0,8 0 0,0
23.06.2019 03:00:00 14,7 13,9 32 17 63 34 SSW 1009,3 0,6 0 0,2
23.06.2019 02:00:00 14,6 13,9 36 19 71 38 S 1008,8 0,6 0 -
23.06.2019 01:00:00 14,4 13,7 38 21 74 40 S 1009,1 0,8 0 2,2
23.06.2019 00:00:00 14,4 13,5 43 23 74 40 S 1009,4 1,0 0 3,2
22.06.2019 23:00:00 14,0 12,8 38 21 68 37 S 1009,8 0,2 0 3,4
22.06.2019 22:00:00 13,9 12,3 39 21 66 36 S 1009,6 6 0 0,8
22.06.2019 21:00:00 14,2 12,2 38 21 68 37 S 1010,1 11 0 1,6
22.06.2019 20:00:00 14,4 12,1 41 22 61 33 S 1010,4 11 0 -
22.06.2019 19:00:00 13,9 11,8 30 16 59 32 S 1011,3 5 0 1,8
22.06.2019 18:00:00 15,2 12,3 34 19 58 32 S 1011,3 14 0 0,0
22.06.2019 17:00:00 15,5 12,6 31 17 53 28 S 1011,3 15 0 0,0
22.06.2019 16:00:00 16,2 13,0 30 16 57 31 S 1011,6 16 0 0,0
22.06.2019 15:00:00 16,0 12,7 28 15 57 31 S 1011,9 15 1 0,0
22.06.2019 14:00:00 16,8 13,2 30 16 54 29 S 1012,3 17 5 -
22.06.2019 13:00:00 15,5 13,6 27 15 46 25 S 1012,6 16 0 0,0
22.06.2019 12:00:00 15,5 14,2 26 14 46 25 S 1012,7 12 3 0,0
22.06.2019 11:00:00 14,8 13,9 24 13 40 21 S 1012,4 0,2 0 0,0
22.06.2019 10:00:00 14,8 13,9 23 12 37 20 S 1013,6 0,1 0 0,0
22.06.2019 09:00:00 14,5 13,4 24 13 34 18 S 1013,7 0,9 0 0,0
22.06.2019 08:00:00 14,5 13,4 23 12 35 19 SSE 1013,6 0,1 0 -
22.06.2019 07:00:00 14,5 13,1 18 10 27 15 S 1014,0 0,1 0 0,0
22.06.2019 06:00:00 14,5 12,8 13 7 21 11 SE 1013,5 8 0 0,0
22.06.2019 05:00:00 15,0 12,5 18 10 26 14 S 1014,3 12 0 0,0
22.06.2019 04:00:00 15,8 12,2 18 10 25 14 S 1014,9 16 0 0,0
22.06.2019 03:00:00 16,7 11,7 14 7 21 11 SSE 1015,5 18 0 0,0
22.06.2019 02:00:00 16,9 11,3 9 5 11 6 SE 1015,8 20 0 -
22.06.2019 01:00:00 17,5 10,6 7 4 20 11 ESE 1016,2 19 0 0,0
22.06.2019 00:00:00 17,3 10,4 15 8 21 11 E 1016,7 14 0 0,0
21.06.2019 23:00:00 17,0 10,6 14 7 23 12 ENE 1016,8 18 0 0,0
21.06.2019 22:00:00 17,3 11,6 16 9 23 12 ENE 1016,8 19 0 0,0
21.06.2019 21:00:00 18,0 11,8 18 10 23 12 NE 1017,2 20 20 0,0
21.06.2019 20:00:00 17,9 12,5 18 10 23 13 NNE 1017,3 18 31 -
21.06.2019 19:00:00 18,6 13,1 16 9 31 17 NNE 1017,3 14 60 0,0
21.06.2019 18:00:00 17,7 12,5 22 12 38 20 NNE 1017,9 14 60 0,0
21.06.2019 17:00:00 17,3 12,8 24 13 38 20 NNE 1018,2 17 59 0,0
21.06.2019 16:00:00 16,9 13,1 21 11 35 19 NNE 1018,3 15 59 0,0
21.06.2019 15:00:00 16,8 13,0 24 13 36 20 NNE 1018,5 15 60 0,0
21.06.2019 14:00:00 16,2 12,7 24 13 33 18 NNE 1019,0 17 49 -
21.06.2019 13:00:00 16,7 13,3 18 10 29 15 NNE 1019,2 18 44 0,0
21.06.2019 12:00:00 15,9 12,8 19 10 25 14 NNE 1019,3 16 52 0,0
21.06.2019 11:00:00 15,8 12,7 13 7 22 12 NNE 1019,5 18 59 0,0
21.06.2019 10:00:00 14,7 12,7 11 6 23 12 NE 1019,5 16 60 0,0
21.06.2019 09:00:00 13,5 11,9 15 8 26 14 NE 1019,6 12 47 0,0
21.06.2019 08:00:00 12,3 11,0 19 11 32 18 ENE 1019,5 9 40 -
21.06.2019 07:00:00 12,0 10,9 16 8 29 15 NE 1019,2 12 0 0,0
21.06.2019 06:00:00 11,9 10,8 16 9 33 18 NE 1019,0 11 0 0,0
21.06.2019 05:00:00 12,0 10,9 24 13 39 21 NE 1019,0 11 0 0,0
21.06.2019 04:00:00 12,0 10,9 21 11 36 20 NE 1019,3 9 0 0,0
21.06.2019 03:00:00 12,2 11,1 21 11 29 16 NE 1019,4 12 0 0,0
21.06.2019 02:00:00 12,3 11,2 18 10 36 19 NE 1019,5 11 0 -
21.06.2019 01:00:00 12,6 11,3 25 13 43 23 NNE 1019,3 12 0 0,0
21.06.2019 00:00:00 12,8 11,2 31 17 43 23 NNE 1018,9 14 0 0,0
20.06.2019 23:00:00 13,3 11,2 25 14 46 25 NNE 1018,3 16 0 0,0
20.06.2019 22:00:00 14,1 11,1 26 14 46 25 NNE 1017,4 17 0 0,0
20.06.2019 21:00:00 15,1 11,7 27 14 46 25 NNE 1017,2 20 45 0,0
20.06.2019 20:00:00 15,8 12,0 29 16 48 26 NNE 1017,0 17 60 -
20.06.2019 19:00:00 15,5 11,9 32 18 55 30 NNE 1016,6 19 60 0,0
20.06.2019 18:00:00 16,4 12,1 29 15 46 25 NNE 1016,8 17 60 0,0
20.06.2019 17:00:00 15,4 12,3 28 15 48 26 NNE 1017,1 14 47 0,0
20.06.2019 16:00:00 15,6 12,7 26 14 46 25 NNE 1017,4 15 48 0,0
20.06.2019 15:00:00 15,1 12,7 29 16 46 25 NNE 1017,2 18 5 0,0
20.06.2019 14:00:00 15,8 13,1 27 14 43 23 NNE 1017,1 17 60 -
20.06.2019 13:00:00 16,2 13,5 24 13 37 20 NNE 1017,4 13 56 0,0
20.06.2019 12:00:00 16,5 12,6 16 9 33 18 NNE 1017,3 16 45 0,0
20.06.2019 11:00:00 15,9 12,6 19 10 36 20 NE 1017,1 20 46 0,0
20.06.2019 10:00:00 14,9 13,3 19 10 35 19 NNE 1017,1 18 35 0,0
20.06.2019 09:00:00 13,8 12,6 21 12 36 19 NE 1017,1 16 2 0,0
20.06.2019 08:00:00 13,4 12,6 19 10 41 22 NE 1017,0 11 0 -
20.06.2019 07:00:00 13,5 12,7 26 14 37 20 NE 1016,8 10 0 0,0
20.06.2019 06:00:00 13,7 13,0 24 13 35 19 NE 1016,9 6 0 0,0
20.06.2019 05:00:00 13,7 13,0 22 12 34 18 NNE 1016,6 5 0 0,0
20.06.2019 04:00:00 13,8 13,1 20 11 - - NNE 1016,9 5 - -
20.06.2019 03:00:00 13,8 13,1 24 13 34 18 NNE 1017,4 8 0 0,0
20.06.2019 02:00:00 13,8 13,1 23 13 32 18 NNE 1017,5 11 0 -
20.06.2019 01:00:00 13,8 13,1 22 12 32 18 NE 1017,7 10 0 0,0
20.06.2019 00:00:00 14,0 13,3 26 14 36 19 NE 1017,3 12 0 0,0
19.06.2019 23:00:00 14,1 13,2 23 12 33 18 NE 1017,1 11 0 0,0
19.06.2019 22:00:00 14,4 13,5 19 11 27 15 NNE 1016,7 12 0 0,0
19.06.2019 21:00:00 14,6 13,7 17 9 25 13 NNE 1016,8 11 0 0,0
19.06.2019 20:00:00 14,9 13,8 16 9 27 15 N 1016,7 15 0 -
19.06.2019 19:00:00 15,6 14,4 17 9 25 13 N 1016,1 2,3 16 0,0
19.06.2019 18:00:00 16,8 15,5 11 6 19 10 N 1016,1 20 36 0,0
19.06.2019 17:00:00 16,0 14,9 6 3 12 6 N 1016,3 16 0 0,0
19.06.2019 16:00:00 - - - - - - - - - - -
19.06.2019 15:00:00 - - - - - - - - - - -
19.06.2019 14:00:00 16,5 15,5 9 5 14 8 NW 1015,6 0,1 4 -
19.06.2019 13:00:00 - - - - - - - - - - -
19.06.2019 12:00:00 16,4 15,6 4 2 10 5 WNW 1014,7 1,7 0 0,0
19.06.2019 11:00:00 - - - - - - - - - - -
19.06.2019 10:00:00 - - - - - - - - - - -
19.06.2019 09:00:00 - - - - - - - - - - -
19.06.2019 08:00:00 - - - - - - - - - - -
19.06.2019 07:00:00 - - - - - - - - - - -
19.06.2019 06:00:00 - - - - - - - - - - -
19.06.2019 05:00:00 - - - - - - - - - - -
19.06.2019 04:00:00 - - - - - - - - - - -
19.06.2019 03:00:00 - - - - - - - - - - -
19.06.2019 02:00:00 - - - - - - - - - - -
19.06.2019 01:00:00 - - - - - - - - - - -
19.06.2019 00:00:00 - - - - - - - - - - -
18.06.2019 23:00:00 - - - - - - - - - - -
18.06.2019 22:00:00 - - - - - - - - - - -
18.06.2019 21:00:00 - - - - - - - - - - -
18.06.2019 20:00:00 - - - - - - - - - - -
18.06.2019 19:00:00 15,2 14,4 46 25 75 41 S 1007,9 0,1 0 0,2
18.06.2019 18:00:00 15,2 14,4 37 20 61 33 S 1008,2 0,1 0 0,0
18.06.2019 17:00:00 15,6 14,8 37 20 68 37 SSW 1008,0 0,1 0 0,0
18.06.2019 16:00:00 15,5 14,7 57 31 82 45 SW 1007,0 0,1 0 1,0

tt = temperature
td = dewpoint
ff = wind speed
fx = gusts
dd = wind direction
ppp = reduced air pressure
vv = visibility
sd = sunshine duration
rr = precipitation

Next stations